Powrót do katalogu

GLOBALSTAR M052

AktywnyŁącznośćMEO
NORAD 25773·PAYLOAD·🇺🇸 United States

Wystrzelony Jun 10, 1999 z Cape Canaveral Space Force Station

Loading…

Następne Przeloty (najbliższe 24 godziny)

TLE

ŚwieżeSource: Space-Track

Epoka: Sep 14, 2026, 15:43 UTC

1 25773U 99031D   26257.65536477 -.00000047  00000-0  63449-3 0  9992
2 25773  51.9910 346.3418 0002543 195.2844 314.2168 11.15065452529200

Śledź GLOBALSTAR M052 w czasie rzeczywistym z AllMySat

Download on the App Store